Walla Walla, WA
on Monday, December 10, 2012

Monday
Previous Day Next Day
Daily Summary
 ActualAverage (KPDT)Record (KPDT)
Temperature
Mean Temperature °F 34°F  
Max Temperature 51°F 40°F 67°F (1933)
Min Temperature 33°F 27°F -13°F (1972)
Degree Days
Heating Degree Days 23 32  
Month to date heating degree days 304  
Since 1 July heating degree days 1557  
Cooling Degree Days 0 0  
Month to date cooling degree days 0  
Year to date cooling degree days 636  
Moisture
Dew Point 37°F   
Average Humidity 85    
Maximum Humidity 100    
Minimum Humidity 66    
Precipitation
Precipitation 0.00 in 0.04 in 0.84 in (1958)
Month to date precipitation 0.49  
Year to date precipitation 11.68  
Snow
Snow 0.00 in 0.20 in 1.30 in (2003)
Month to date snowfall 1.6  
Year to date snowfall 10.8  
Since 1 July snowfall 3.1  
Snow Depth in   
Wind
Wind Speed 6 mph   
Max Wind Speed 14 mph   
Max Gust Speed mph   
Visibility 6 miles   
Events Fog , Snow   

Key: T is trace of precipitation, MM is missing value
Source: NWS Daily Summary
Time(PST)TemperatureDew PointHumidity Pressure Visibility Wind DirectionWind SpeedGust SpeedPrecipitationEvents Conditions
12:24 AM 44.6°F 37.4°F 76% 30.23 in 10.0 miles South 9.2 mph - N/A   Overcast
12:53 AM 45.0°F 39.0°F 80% 30.25 in 10.0 miles SSW 9.2 mph - N/A   Overcast
1:53 AM 45.0°F 39.0°F 80% 30.26 in 10.0 miles SSW 5.8 mph - N/A   Overcast
2:53 AM 44.1°F 39.0°F 82% 30.27 in 10.0 miles SSW 6.9 mph - N/A   Overcast
3:53 AM 41.0°F 37.9°F 89% 30.28 in 10.0 miles West 3.5 mph - N/A   Overcast
4:24 AM 39.2°F 37.4°F 93% 30.27 in 10.0 miles Calm Calm - N/A   Overcast
4:53 AM 37.9°F 37.0°F 97% 30.30 in 10.0 miles Calm Calm - N/A   Scattered Clouds
5:24 AM 35.6°F 35.6°F 100% 30.29 in 7.0 miles WSW 4.6 mph - N/A   Mostly Cloudy
5:53 AM 37.0°F 35.1°F 93% 30.32 in 6.0 miles Calm Calm - N/A   Overcast
6:12 AM 35.6°F 35.6°F 100% 30.29 in 1.5 miles South 4.6 mph - N/A   Overcast
6:15 AM 35.6°F 33.8°F 93% 30.29 in 0.8 miles South 3.5 mph - N/A   Overcast
6:25 AM 35.6°F 35.6°F 100% 30.29 in 0.2 miles SSW 4.6 mph - N/A Fog Fog
6:27 AM 35.6°F 35.6°F 100% 30.29 in 0.2 miles SSW 4.6 mph - N/A Fog Fog
6:43 AM 35.6°F 35.6°F 100% 30.29 in 0.2 miles SSW 4.6 mph - N/A Fog Fog
6:53 AM 35.1°F 35.1°F 100% 30.32 in 0.2 miles SSW 6.9 mph - N/A Fog Fog
7:05 AM 33.8°F 33.8°F 100% 30.30 in 0.2 miles SSW 5.8 mph - N/A Fog Fog
7:30 AM 33.8°F 33.8°F 100% 30.31 in 0.2 miles South 3.5 mph - N/A Fog Fog
7:53 AM 33.1°F 33.1°F 100% 30.34 in 0.2 miles South 9.2 mph - 0.00 in Fog , Snow Light Snow
8:26 AM 33.8°F 33.8°F 100% 30.31 in 0.2 miles South 4.6 mph - 0.00 in Fog Fog
8:36 AM 35.6°F 33.8°F 93% 30.31 in 0.8 miles SW 3.5 mph - 0.00 in   Scattered Clouds
8:43 AM 33.8°F 33.8°F 100% 30.31 in 0.5 miles SSW 4.6 mph - 0.00 in Fog Fog
8:53 AM 34.0°F 34.0°F 100% 30.34 in 0.8 miles South 4.6 mph - 0.00 in   Scattered Clouds
9:06 AM 39.2°F 37.4°F 93% 30.30 in 3.0 miles SSE 4.6 mph - N/A   Mostly Cloudy
9:53 AM 46.9°F 39.9°F 77% 30.31 in 10.0 miles South 10.4 mph - N/A   Clear
10:53 AM 48.9°F 41.0°F 74% 30.30 in 10.0 miles SSW 12.7 mph - N/A   Partly Cloudy
11:53 AM 50.0°F 41.0°F 71% 30.27 in 10.0 miles SW 13.8 mph - N/A   Clear
12:53 PM 51.1°F 41.0°F 68% 30.25 in 10.0 miles SW 10.4 mph - N/A   Clear
1:53 PM 51.1°F 41.0°F 68% 30.23 in 10.0 miles SW 6.9 mph - N/A   Mostly Cloudy
2:53 PM 50.0°F 39.0°F 66% 30.22 in 10.0 miles WSW 8.1 mph - N/A   Overcast
3:53 PM 48.9°F 39.0°F 69% 30.22 in 10.0 miles SSW 5.8 mph - N/A   Overcast
4:53 PM 48.0°F 39.0°F 71% 30.21 in 10.0 miles SSW 6.9 mph - N/A   Overcast
5:53 PM 46.9°F 39.0°F 74% 30.19 in 10.0 miles South 8.1 mph - N/A   Overcast
6:53 PM 46.0°F 37.9°F 73% 30.19 in 10.0 miles South 9.2 mph - N/A   Overcast
7:53 PM 44.1°F 37.0°F 76% 30.19 in 10.0 miles South 10.4 mph - N/A   Mostly Cloudy
8:53 PM 44.1°F 36.0°F 73% 30.18 in 10.0 miles South 9.2 mph - N/A   Overcast
9:53 PM 44.1°F 35.1°F 71% 30.15 in 10.0 miles South 11.5 mph - N/A   Clear
10:53 PM 43.0°F 34.0°F 71% 30.12 in 10.0 miles South 10.4 mph - N/A   Clear
11:53 PM 42.1°F 33.1°F 70% 30.09 in 10.0 miles South 5.8 mph - N/A   Clear
Moon Phase
Dec. 10 Dec. 13 Dec. 20 Dec. 28 Jan. 04
Sunrise:07:25 AM (PST) Moon Rise:04:07 AM (PST)12/10
Sunset:04:07 PM (PST) Moon Set:02:05 PM (PST)12/10

Copyright © 2014 The Weather Underground, Inc.